Flight Track Log - Related Links

Times and Time Zones

All times are in EDT time to prevent confusion due to time zone crossing. See the DAL1781 flight status page for this flight to view local times or setup timezone preferences in your user account.

Time Position Orientation Groundspeed Altitude Reporting Facility
EDT Latitude Longitude Course Direction KTS MPH feet Rate Location/Type
Mon 03:49:36 PM 40.8056 -111.9628 349° North 163 188 5,300  Level Salt Lake Center
Mon 03:49:51 PM 40.8153 -111.9653 349° North 163 188 5,700 1,737 Climbing Salt Lake Center
Mon 03:50:52 PM 40.8378 -112.0392 292° West 229 264 7,500 2,049 Climbing Salt Lake Center
Mon 03:51:54 PM 40.8719 -112.1342 295° West 286 329 9,900 1,317 Climbing Salt Lake Center
Mon 03:52:55 PM 40.9394 -112.2142 318° Northwest 322 371 10,200 1,805 Climbing Salt Lake Center
Mon 03:53:57 PM 41.0094 -112.2961 319° Northwest 333 383 13,600 3,366 Climbing Salt Lake Center
Mon 03:54:58 PM 41.0956 -112.3994 318° Northwest 351 404 17,100 3,073 Climbing Salt Lake Center
Mon 03:56:00 PM 41.1714 -112.4900 318° Northwest 364 419 19,900 2,537 Climbing Salt Lake Center
Mon 03:57:01 PM 41.2497 -112.5822 318° Northwest 376 433 22,300 2,195 Climbing Salt Lake Center
Mon 03:58:03 PM 41.3247 -112.6858 314° West 388 447 24,400 1,805 Climbing Salt Lake Center
Mon 03:59:04 PM 41.3989 -112.7925 313° West 391 450 26,000 1,610 Climbing Salt Lake Center
Mon 04:00:06 PM 41.4736 -112.9092 311° West 411 473 27,700 1,902 Climbing Salt Lake Center
Mon 04:01:07 PM 41.5467 -113.0222 311° West 405 466 29,900 1,122 Climbing Salt Lake Center
Mon 04:02:09 PM 41.6186 -113.1336 311° West 399 459 30,000 49 Climbing Salt Lake Center
Mon 04:03:10 PM 41.6928 -113.2456 312° West 400 460 30,000  Level Salt Lake Center
Mon 04:04:12 PM 41.7792 -113.3786 311° West 396 456 30,000 -49 Level Salt Lake Center
Mon 04:05:13 PM 41.8492 -113.4881 311° West 387 445 29,900  Descending Salt Lake Center
Mon 04:06:14 PM 41.9206 -113.5994 311° West 392 451 30,000 49 Climbing Salt Lake Center
Mon 04:07:16 PM 41.9922 -113.7111 311° West 396 456 30,000 49 Level Salt Lake Center
Mon 04:08:17 PM 42.0633 -113.8242 310° West 396 456 30,100  Climbing Salt Lake Center
Mon 04:09:19 PM 42.1356 -113.9375 311° West 399 459 30,000 -49 Descending Salt Lake Center
Mon 04:10:20 PM 42.2075 -114.0497 311° West 397 457 30,000  Level Salt Lake Center
Mon 04:11:21 PM 42.2786 -114.1633 310° West 397 457 30,000  Level Salt Lake Center
Mon 04:12:23 PM 42.3494 -114.2786 310° West 388 447 30,000  Level Salt Lake Center
Mon 04:13:24 PM 42.4336 -114.4158 310° West 392 451 30,000  Level Salt Lake Center
Mon 04:14:26 PM 42.5044 -114.5269 311° West 389 448 30,000  Level Salt Lake Center
Mon 04:15:27 PM 42.5781 -114.6322 314° West 387 445 30,000  Level Salt Lake Center
Mon 04:16:28 PM 42.6542 -114.7425 313° West 389 448 30,000  Level Salt Lake Center
Mon 04:17:30 PM 42.7244 -114.8483 312° West 392 451 30,000 -488 Level Salt Lake Center
Mon 04:18:31 PM 42.8058 -114.9675 313° West 387 445 29,000 -1,721 Descending Salt Lake Center
Mon 04:19:32 PM 42.8756 -115.0714 313° West 386 444 26,500 -2,537 Descending Salt Lake Center
Mon 04:20:34 PM 42.9414 -115.1689 313° West 366 421 23,800 -2,780 Descending Salt Lake Center
Mon 04:21:35 PM 43.0128 -115.2767 312° West 346 398 20,800 -3,268 Descending Salt Lake Center
Mon 04:22:37 PM 43.0972 -115.3569 325° Northwest 355 409 17,100 -3,122 Descending Salt Lake Center
Mon 04:23:38 PM 43.1706 -115.4422 320° Northwest 338 389 14,400 -2,508 Descending Salt Lake Center
Mon 04:24:39 PM 43.2239 -115.5336 309° West 321 369 12,000 -2,098 Descending Salt Lake Center
Mon 04:25:41 PM 43.2739 -115.6331 305° West 304 350 10,100 -1,512 Descending Salt Lake Center
Mon 04:26:42 PM 43.3219 -115.7150 309° West 266 306 8,900 -1,033 Descending Salt Lake Center
Mon 04:27:43 PM 43.3683 -115.7942 309° West 257 296 8,000 -634 Descending Salt Lake Center
Mon 04:28:45 PM 43.4106 -115.8664 309° West 253 291 7,600 -780 Descending Salt Lake Center
Mon 04:29:46 PM 43.4492 -115.9344 308° West 218 251 6,400 -1,024 Descending Salt Lake Center
Mon 04:30:48 PM 43.4775 -116.0011 300° West 194 223 5,500 -976 Descending Salt Lake Center
Mon 04:31:49 PM 43.5022 -116.0606 300° West 175 201 4,400 -738 Descending Salt Lake Center
Mon 04:32:50 PM 43.5256 -116.1117 302° West 166 191 4,000 -341 Descending Salt Lake Center
Mon 04:33:52 PM 43.5381 -116.1475 296° West 128 147 3,700 -290 Descending Salt Lake Center
Mon 04:35:00 PM 43.5500 -116.2167 295° West  Level FlightAware Approximate

Login

Don't have an account? Register now (free) for customized features, flight alerts, and more!